Weather in Newbury

United Kingdom     51°24′29″N   1°19′17″W
temp.,
°C
wind,
m/s
gust,
m/s
humid.,
%
clouds,
%
prec.,
mm/h
press.,
hPa
HPBL,
m
19 april, mon
mon1901:00+4ene11825 0.0 102410
04:00+2ene11845 0.0 102310
07:00+3ene11875 0.0 102310
10:00+9ese22690 0.0 1022495
13:00+13se225922 0.0 10211243
16:00+13sse1256100 0.1 10191366
19:00+11sw2372100 0.1 101939
22:00+9sw2379100 0.0 101962
20 april, tue
tue2001:00+8sw2275100 0.0 101946
04:00+8s1170100 0.0 101811
07:00+7ssw1174100 0.0 101910
10:00+10e117094 0.0 1019338
13:00+14nnw226082 0.1 10181301
16:00+14n226173 0.4 10171122
19:00+11n358097 0.9 1018129
22:00+8n338926 0.0 101941
21 april, wed
wed2101:00+7nne2291100 0.1 101933
04:00+6n2394100 0.0 101942
07:00+6nne389714 0.0 1020216
10:00+9ne698397 0.0 1022702
13:00+9ne788085 0.2 1022819
16:00+10ene687099 0.0 1022975
19:00+8ne696678 0.0 1023667
22:00+4ne512775 0.0 1025375
22 april, thu
thu2201:00+1ne310925 0.0 1026213
04:00−1ne37935 0.0 1026127
07:000ne378619 0.0 1027189
10:00+7ene565866 0.0 1027752
13:00+11ene56518 0.0 10261185
16:00+12ene56545 0.0 10261365
19:00+10ne48705 0.0 1027328
22:00+4ene38785 0.0 1028132
23 april, fri
fri2301:00+2e22910 0.0 102820
04:00+1ene22940 0.0 102828
07:00+1ene36875 0.0 1029156
10:00+8e57675 0.0 1028728
13:00+12e67535 0.0 10271262
16:00+13e67481 0.0 10261421
19:00+9e59625 0.0 1026349
22:00+3e311748 0.0 1027203